TimeEST,TemperatureF,Dew PointF,Humidity,Sea Level PressureIn,VisibilityMPH,Wind Direction,Wind SpeedMPH,Gust SpeedMPH,PrecipitationIn,Events,Conditions,WindDirDegrees,DateUTC
12:54 AM,26.1,15.1,63,30.27,10.0,SSE,6.9,-,N/A,,Overcast,150,2013-01-12 05:54:00
1:54 AM,26.1,14.0,60,30.24,10.0,SSE,10.4,-,N/A,,Overcast,150,2013-01-12 06:54:00
3:54 AM,26.1,12.9,58,30.21,10.0,SSE,6.9,-,0.00,,Overcast,150,2013-01-12 08:54:00
4:04 AM,26.6,12.2,55,30.17,10.0,SSE,8.1,-,N/A,,Overcast,150,2013-01-12 09:04:00
4:54 AM,25.0,14.0,63,30.21,10.0,SSE,8.1,-,N/A,,Overcast,150,2013-01-12 09:54:00
5:54 AM,26.1,12.9,58,30.20,10.0,South,9.2,-,N/A,,Overcast,170,2013-01-12 10:54:00
6:54 AM,26.1,14.0,60,30.20,10.0,SSE,9.2,-,N/A,,Overcast,160,2013-01-12 11:54:00
7:54 AM,26.1,16.0,66,30.22,10.0,South,8.1,-,N/A,,Overcast,170,2013-01-12 12:54:00
8:54 AM,26.1,16.0,66,30.20,10.0,SSE,10.4,-,N/A,,Overcast,160,2013-01-12 13:54:00
9:54 AM,28.0,18.0,66,30.17,10.0,SSE,10.4,-,N/A,,Overcast,160,2013-01-12 14:54:00
10:54 AM,28.0,19.9,72,30.17,5.0,South,8.1,-,0.00,,Overcast,180,2013-01-12 15:54:00
11:54 AM,28.0,21.9,78,30.13,10.0,SSE,9.2,-,0.00,,Overcast,160,2013-01-12 16:54:00
12:54 PM,30.0,23.0,75,30.12,10.0,SSE,9.2,-,N/A,,Overcast,150,2013-01-12 17:54:00
1:14 PM,30.2,23.0,75,30.08,10.0,SSE,8.1,-,N/A,,Overcast,160,2013-01-12 18:14:00
1:54 PM,30.9,23.0,72,30.12,10.0,SSE,12.7,-,N/A,,Overcast,160,2013-01-12 18:54:00
2:54 PM,30.9,24.1,76,30.11,10.0,SSE,9.2,-,N/A,,Overcast,160,2013-01-12 19:54:00
3:16 PM,32.0,24.8,75,30.09,10.0,South,9.2,-,N/A,,Overcast,180,2013-01-12 20:16:00
3:54 PM,30.9,24.1,76,30.11,10.0,SSE,8.1,-,N/A,,Overcast,160,2013-01-12 20:54:00
4:19 PM,30.2,24.8,80,30.07,10.0,SSE,10.4,-,N/A,,Overcast,150,2013-01-12 21:19:00
4:41 PM,30.2,24.8,80,30.07,10.0,South,10.4,-,N/A,,Overcast,170,2013-01-12 21:41:00
4:54 PM,32.0,24.1,73,30.11,10.0,South,9.2,-,N/A,,Overcast,170,2013-01-12 21:54:00
5:08 PM,32.0,24.8,75,30.07,10.0,South,6.9,-,N/A,,Overcast,170,2013-01-12 22:08:00
5:54 PM,32.0,25.0,75,30.11,10.0,South,8.1,-,N/A,,Overcast,180,2013-01-12 22:54:00
6:13 PM,32.0,24.8,75,30.07,10.0,South,8.1,-,N/A,,Overcast,180,2013-01-12 23:13:00
6:54 PM,32.0,25.0,75,30.08,10.0,South,10.4,-,N/A,,Overcast,170,2013-01-12 23:54:00
7:54 PM,32.0,26.1,79,30.07,10.0,South,6.9,-,N/A,,Overcast,180,2013-01-13 00:54:00
8:33 PM,33.8,26.6,75,30.03,10.0,South,11.5,-,N/A,,Overcast,180,2013-01-13 01:33:00
8:54 PM,32.0,27.0,82,30.06,10.0,South,9.2,-,N/A,,Overcast,180,2013-01-13 01:54:00
9:54 PM,32.0,27.0,82,30.09,10.0,South,4.6,-,N/A,,Overcast,180,2013-01-13 02:54:00
10:31 PM,32.0,26.6,80,30.03,10.0,SSE,9.2,-,N/A,,Overcast,160,2013-01-13 03:31:00
10:54 PM,32.0,27.0,82,30.05,10.0,SSE,8.1,-,N/A,,Overcast,160,2013-01-13 03:54:00
11:54 PM,33.1,30.0,89,30.04,10.0,South,6.9,-,N/A,,Overcast,180,2013-01-13 04:54:00